GW2822 Weather Reports


time (UTC)temp
F
wind
direction
speed
knots
gust
knots
rain 1hr
in
rain 24hr
in
rain mn
in
humidity
%
barometer
mb
20260510072555 63 109 0.0 0.0 0.00 0.02 0.00 90 1008.3
20260510072009 63 109 0.0 0.0 0.00 0.02 0.00 90 1008.3
20260510071533 64 109 0.0 0.0 0.00 0.02 0.00 90 1008.4
20260510071036 64 109 0.0 0.0 0.00 0.02 0.00 90 1008.4
20260510070552 64 109 0.0 0.0 0.00 0.02 0.00 90 1008.4
20260510070049 64 109 0.0 0.0 0.00 0.02 0.00 90 1008.3
20260510065507 64 109 0.0 0.0 0.00 0.02 0.00 90 1008.4
20260510065020 64 109 0.0 0.0 0.00 0.02 0.00 90 1008.3
20260510064531 64 109 0.0 0.0 0.00 0.02 0.00 90 1008.3
20260510064040 64 109 0.0 0.9 0.00 0.02 0.00 89 1008.2
20260510063554 65 109 0.0 0.0 0.00 0.02 0.00 89 1008.2
20260510063009 65 109 0.0 0.0 0.00 0.02 0.00 89 1008.2
20260510062522 65 109 0.0 0.0 0.00 0.02 0.00 89 1008.2
20260510062035 65 109 0.0 0.0 0.00 0.02 0.00 88 1008.3
20260510061547 65 109 0.0 0.0 0.00 0.02 0.00 88 1008.4
20260510061058 65 109 0.0 0.0 0.00 0.02 0.00 88 1008.4
20260510061005 65 109 0.0 0.0 0.00 0.02 0.00 88 1008.4
20260510060516 66 109 0.0 0.0 0.00 0.02 0.00 88 1008.4
20260510060012 66 109 0.0 0.0 0.00 0.02 0.00 87 1008.4
20260510055518 66 109 0.0 0.0 0.00 0.02 0.00 87 1008.4
20260510055034 66 109 0.0 0.0 0.00 0.02 0.00 87 1008.4
20260510054546 66 109 0.0 0.0 0.00 0.02 0.00 86 1008.4
20260510054100 66 109 0.0 0.0 0.00 0.02 0.00 86 1008.3
20260510054003 66 109 0.0 0.0 0.00 0.02 0.00 86 1008.3
20260510053516 67 109 0.0 0.0 0.00 0.02 0.00 86 1008.4
20260510053030 67 109 0.0 0.0 0.00 0.02 0.00 85 1008.3
20260510052540 67 109 0.0 0.0 0.00 0.02 0.00 84 1008.3
20260510052057 67 109 0.0 0.0 0.00 0.02 0.00 85 1008.3
20260510051506 67 109 0.0 0.0 0.00 0.02 0.00 85 1008.3
20260510051023 68 109 0.0 0.0 0.00 0.02 0.00 85 1008.2
20260510050535 68 109 0.0 0.0 0.00 0.02 0.00 84 1008.1
20260510050031 68 109 0.0 0.0 0.00 0.02 0.02 84 1008.0
20260510045536 68 109 0.0 0.0 0.00 0.02 0.02 83 1008.0
20260510045050 68 109 0.0 0.0 0.00 0.02 0.02 83 1008.0
20260510044618 69 109 0.0 0.0 0.00 0.02 0.02 82 1008.0
20260510044505 69 109 0.0 0.0 0.00 0.02 0.02 81 1008.0
20260510044017 69 109 0.0 0.0 0.00 0.02 0.02 81 1008.0
20260510043532 69 109 0.0 0.0 0.00 0.02 0.02 80 1008.0
20260510043044 70 109 0.0 0.0 0.00 0.02 0.02 80 1008.0
20260510042559 70 109 0.0 0.0 0.00 0.02 0.02 80 1008.0
20260510042502 70 109 0.0 0.0 0.00 0.02 0.02 80 1008.0
20260510042011 70 109 0.0 0.0 0.00 0.02 0.02 80 1008.0
20260510041527 70 109 0.0 0.0 0.00 0.02 0.02 79 1007.9
20260510041039 70 109 0.0 0.0 0.00 0.02 0.02 78 1007.9
20260510040557 71 109 0.0 0.0 0.00 0.02 0.02 78 1007.9
20260510040050 71 109 0.0 0.0 0.00 0.02 0.02 77 1007.9
20260510035559 71 109 0.0 0.0 0.00 0.02 0.02 76 1007.8
20260510035502 72 109 0.0 0.0 0.00 0.02 0.02 76 1007.8
20260510035019 72 109 0.0 0.0 0.00 0.02 0.02 76 1007.8
20260510034531 72 109 0.0 0.0 0.00 0.02 0.02 77 1007.9
20260510034046 73 109 0.0 0.0 0.00 0.02 0.02 76 1007.9
20260510033602 73 109 0.0 0.0 0.00 0.02 0.02 75 1007.8
20260510033505 73 109 0.0 0.0 0.00 0.02 0.02 75 1007.8
20260510033015 74 109 0.0 0.0 0.00 0.02 0.02 76 1007.7
20260510032527 74 109 0.0 0.0 0.00 0.02 0.02 74 1007.6
20260510032041 74 109 0.0 0.0 0.00 0.02 0.02 73 1007.6
20260510031554 75 109 0.0 0.0 0.00 0.02 0.02 73 1007.6
20260510031013 75 109 0.0 0.0 0.00 0.02 0.02 72 1007.5
20260510030523 76 109 0.0 0.0 0.00 0.02 0.02 70 1007.5
20260510030023 76 109 0.0 0.0 0.00 0.02 0.02 71 1007.3
20260510025538 76 109 0.0 0.9 0.00 0.02 0.02 71 1007.2
20260510025051 76 109 0.0 0.9 0.00 0.02 0.02 70 1007.1
20260510024508 77 109 0.0 0.9 0.00 0.02 0.02 69 1007.1
20260510024019 77 109 0.0 0.9 0.00 0.02 0.02 68 1007.0
20260510023535 78 109 0.0 0.9 0.00 0.02 0.02 67 1007.0
20260510023047 78 109 0.0 0.0 0.00 0.02 0.02 65 1007.0
20260510022559 78 109 0.0 0.0 0.00 0.02 0.02 65 1007.0
20260510022503 78 109 0.0 0.0 0.00 0.02 0.02 65 1006.9
20260510022014 78 109 0.0 0.9 0.00 0.02 0.02 64 1006.9
20260510021532 79 109 0.0 0.9 0.00 0.02 0.02 63 1006.9
20260510021043 79 109 0.0 0.9 0.00 0.02 0.02 63 1006.8
20260510020559 79 109 0.0 0.9 0.00 0.02 0.02 62 1006.8
20260510020503 79 109 0.0 0.9 0.00 0.02 0.02 62 1006.8
20260510020057 79 109 0.0 1.7 0.00 0.02 0.02 61 1006.7
20260510015508 80 112 0.0 1.7 0.00 0.02 0.02 61 1006.7
20260510015023 80 113 0.0 1.7 0.00 0.02 0.02 60 1006.6
20260510014536 80 113 0.0 3.5 0.00 0.02 0.02 59 1006.5
20260510014051 81 116 0.0 3.5 0.00 0.02 0.02 58 1006.4
20260510013508 81 111 0.0 5.2 0.00 0.02 0.02 57 1006.3
20260510013021 81 109 0.9 5.2 0.00 0.02 0.02 57 1006.3
20260510012528 82 103 0.9 6.1 0.00 0.02 0.02 56 1006.2
20260510012047 82 118 2.6 6.1 0.00 0.02 0.02 56 1006.2
20260510011555 83 119 0.9 3.5 0.00 0.02 0.02 56 1006.2
20260510011012 83 117 0.9 3.5 0.00 0.02 0.02 57 1006.0
20260510010526 84 129 0.0 3.5 0.00 0.02 0.02 58 1006.0
20260510010021 84 129 0.9 3.5 0.00 0.02 0.02 58 1005.9
20260510005537 84 126 0.9 3.5 0.00 0.02 0.02 59 1005.8
20260510005046 85 130 0.9 7.0 0.00 0.02 0.02 59 1005.8
20260510004506 85 105 1.7 7.0 0.00 0.02 0.02 58 1005.7
20260510004021 85 123 3.5 7.8 0.00 0.02 0.02 58 1005.6
20260510003534 85 115 3.5 7.8 0.00 0.02 0.02 58 1005.6
20260510003045 86 147 1.7 5.2 0.00 0.02 0.02 58 1005.5
20260510002600 86 134 1.7 4.3 0.00 0.02 0.02 59 1005.5
20260510002504 86 134 0.9 5.2 0.00 0.02 0.02 59 1005.5
20260510002014 86 135 1.7 6.1 0.00 0.02 0.02 58 1005.5
20260510001531 86 113 2.6 7.8 0.00 0.02 0.02 58 1005.4
20260510001041 86 119 3.5 7.8 0.00 0.02 0.02 57 1005.3
20260510000556 86 115 0.9 4.3 0.00 0.02 0.02 57 1005.2
20260510000053 86 136 0.9 7.0 0.00 0.02 0.02 57 1005.2
20260509235510 86 136 2.6 7.0 0.00 0.02 0.02 56 1005.2
20260509235020 86 102 0.9 6.1 0.00 0.02 0.02 57 1005.1
20260509234540 86 113 0.9 8.7 0.00 0.02 0.02 57 1005.1
20260509234048 86 123 3.5 8.7 0.00 0.02 0.02 56 1005.2
20260509233504 86 116 3.5 8.7 0.00 0.02 0.02 57 1005.2
20260509233014 86 102 0.9 7.0 0.00 0.02 0.02 57 1005.2
20260509232529 86 123 2.6 7.8 0.00 0.02 0.02 57 1005.2
20260509232041 86 125 3.5 7.8 0.00 0.02 0.02 56 1005.2
20260509231556 86 138 3.5 7.8 0.00 0.02 0.02 57 1005.2
20260509231012 86 149 2.6 10.4 0.00 0.02 0.02 57 1005.2
20260509230522 86 135 3.5 9.6 0.00 0.02 0.02 58 1005.1
20260509230016 86 122 5.2 8.7 0.00 0.02 0.02 58 1005.2
20260509225526 86 113 2.6 7.8 0.00 0.02 0.02 59 1005.1
20260509225043 87 110 1.7 12.2 0.00 0.02 0.02 58 1005.2
20260509224559 87 105 6.1 12.2 0.00 0.02 0.02 57 1005.1
20260509224012 87 103 2.6 13.9 0.00 0.02 0.02 56 1005.1
20260509223522 88 93 7.0 13.9 0.00 0.02 0.02 53 1005.1
20260509223036 90 114 6.1 10.4 0.00 0.02 0.02 52 1005.0
20260509222551 90 132 0.9 3.5 0.00 0.02 0.02 51 1005.0
20260509222006 90 37 0.9 2.6 0.00 0.02 0.02 49 1005.0
20260509221516 91 38 0.0 2.6 0.00 0.02 0.02 48 1005.0
20260509221035 91 344 0.0 2.6 0.00 0.02 0.02 52 1004.9
20260509220548 91 306 0.0 6.1 0.00 0.02 0.02 50 1005.0
20260509220041 91 257 3.5 6.1 0.00 0.02 0.02 49 1005.0
20260509215555 91 5 0.9 4.3 0.00 0.02 0.02 49 1005.1
20260509215008 92 46 0.0 4.3 0.00 0.02 0.02 49 1005.1
20260509214521 92 355 0.9 4.3 0.00 0.02 0.02 47 1005.2
20260509214030 91 189 0.9 5.2 0.00 0.02 0.02 49 1005.2
20260509213544 91 59 0.9 3.5 0.00 0.02 0.02 48 1005.4
20260509213119 91 24 0.9 4.3 0.00 0.02 0.02 49 1005.4
20260509212509 91 267 0.0 6.1 0.00 0.02 0.02 52 1005.4
20260509212022 90 344 0.9 8.7 0.00 0.02 0.02 49 1005.5
20260509211538 91 281 1.7 8.7 0.00 0.02 0.02 51 1005.4
20260509211048 90 241 2.6 4.3 0.00 0.02 0.02 53 1005.5
20260509210504 90 232 0.0 8.7 0.00 0.02 0.02 55 1005.5
20260509210104 90 355 2.6 8.7 0.00 0.02 0.02 54 1005.5
20260509205511 89 315 2.6 6.1 0.00 0.02 0.02 54 1005.5
20260509205028 89 76 0.9 4.3 0.00 0.02 0.02 52 1005.6
20260509204541 89 306 1.7 4.3 0.00 0.02 0.02 52 1005.8
20260509204056 89 68 1.7 4.3 0.00 0.02 0.02 54 1005.9
20260509203509 89 159 0.0 6.1 0.00 0.02 0.02 52 1006.0
20260509203036 89 195 0.9 6.1 0.00 0.02 0.02 54 1006.0
20260509202539 88 254 0.9 9.6 0.00 0.02 0.02 53 1006.0
20260509202054 88 209 2.6 9.6 0.00 0.02 0.02 53 1006.0
20260509201510 88 252 0.9 7.8 0.00 0.02 0.02 59 1006.1
20260509201025 88 269 2.6 7.8 0.00 0.02 0.02 56 1006.2
20260509200533 89 204 0.0 10.4 0.00 0.02 0.02 60 1006.3
20260509200031 89 278 4.3 10.4 0.00 0.02 0.02 51 1006.4
20260509195548 89 279 0.0 6.1 0.00 0.02 0.02 57 1006.4
20260509195055 89 231 1.7 6.1 0.00 0.02 0.02 62 1006.5
20260509194518 88 305 0.0 6.1 0.00 0.02 0.02 59 1006.6
20260509194026 88 227 1.7 7.0 0.00 0.02 0.02 57 1006.6
20260509193543 88 146 2.6 10.4 0.00 0.02 0.02 61 1006.6
20260509193052 88 213 3.5 10.4 0.00 0.02 0.02 60 1006.6
20260509192509 88 313 0.9 9.6 0.00 0.02 0.02 59 1006.8
20260509192022 88 267 2.6 9.6 0.00 0.02 0.02 62 1006.9
20260509191540 88 269 3.5 7.0 0.00 0.02 0.02 61 1007.0
20260509191048 87 227 2.6 7.8 0.00 0.02 0.02 62 1007.0
20260509190503 86 234 3.5 7.8 0.00 0.02 0.02 63 1007.2
20260509190052 85 219 0.0 5.2 0.00 0.02 0.02 69 1007.4
20260509185507 84 221 0.9 3.5 0.00 0.02 0.02 68 1007.6
20260509185018 84 240 0.9 3.5 0.00 0.02 0.02 67 1007.7
20260509184549 84 360 1.7 3.5 0.00 0.02 0.02 67 1007.7
20260509184045 84 317 0.9 7.0 0.00 0.02 0.02 67 1007.8
20260509183559 84 289 1.7 7.0 0.00 0.02 0.02 67 1007.9
20260509183501 84 292 1.7 7.8 0.00 0.02 0.02 67 1007.9
20260509183018 85 265 2.6 7.8 0.00 0.02 0.02 68 1007.9
20260509182534 85 214 4.3 9.6 0.00 0.02 0.02 66 1007.9
20260509182047 85 208 5.2 9.6 0.00 0.02 0.02 66 1007.9
20260509181601 85 225 1.7 7.0 0.00 0.02 0.02 69 1007.9
20260509181015 84 196 4.3 7.8 0.00 0.02 0.02 69 1007.9
20260509180523 83 211 3.5 7.0 0.00 0.02 0.02 70 1008.0
20260509180017 83 213 1.7 7.8 0.00 0.02 0.02 71 1008.0
20260509175530 83 254 0.9 7.0 0.00 0.02 0.02 71 1008.1
20260509175041 82 231 3.5 7.0 0.00 0.02 0.02 73 1008.1
20260509174551 82 192 1.7 9.6 0.00 0.02 0.02 74 1008.2
20260509174009 82 245 5.2 9.6 0.00 0.02 0.02 74 1008.2
20260509173520 82 224 4.3 7.8 0.00 0.02 0.02 75 1008.3
20260509173039 81 260 2.6 8.7 0.00 0.02 0.02 74 1008.4
20260509172544 81 253 4.3 9.6 0.00 0.02 0.02 76 1008.5
20260509172056 81 251 4.3 9.6 0.00 0.02 0.02 77 1008.5
20260509171511 81 252 4.3 9.6 0.00 0.02 0.02 77 1008.5
20260509171023 81 202 3.5 7.0 0.00 0.02 0.02 80 1008.4
20260509170533 80 242 3.5 7.0 0.00 0.02 0.02 80 1008.5
20260509170032 79 169 3.5 7.8 0.00 0.02 0.02 82 1008.5
20260509165541 79 225 5.2 7.8 0.00 0.02 0.02 83 1008.7
20260509165051 78 274 4.3 11.3 0.00 0.02 0.02 84 1008.8
20260509164507 78 302 2.6 11.3 0.00 0.02 0.02 84 1008.8
20260509164023 78 276 2.6 7.0 0.00 0.02 0.02 84 1008.8
20260509163534 78 281 4.3 7.0 0.00 0.02 0.02 84 1008.9
20260509163045 78 222 2.6 7.0 0.00 0.02 0.02 86 1008.8
20260509162559 77 219 1.7 8.7 0.00 0.02 0.02 88 1008.8
20260509162501 77 213 0.0 8.7 0.00 0.02 0.02 87 1008.7
20260509162020 77 225 6.1 8.7 0.00 0.02 0.02 89 1008.8
20260509161533 76 248 3.5 7.8 0.00 0.02 0.02 90 1008.9
20260509161037 76 226 3.5 7.8 0.00 0.02 0.02 93 1008.9
20260509160555 75 219 2.6 7.0 0.00 0.02 0.02 94 1009.0
20260509160043 75 188 2.6 6.1 0.00 0.02 0.02 95 1009.1
20260509155558 74 142 4.3 6.1 0.00 0.02 0.02 96 1009.0
20260509155014 74 210 3.5 6.1 0.00 0.02 0.02 96 1009.0
20260509154523 74 162 3.5 6.1 0.00 0.02 0.02 97 1009.3
20260509154040 73 138 0.0 6.1 0.00 0.02 0.02 97 1009.3
20260509153550 73 192 0.9 3.5 0.00 0.02 0.02 97 1009.2
20260509153007 73 136 2.6 6.1 0.00 0.02 0.02 97 1009.3
20260509152518 73 184 4.3 6.1 0.00 0.02 0.02 96 1009.3
20260509152033 73 171 2.6 7.8 0.00 0.02 0.02 97 1009.3
20260509151550 73 180 4.3 7.8 0.00 0.02 0.02 97 1009.2
20260509151004 73 161 5.2 7.8 0.00 0.02 0.02 97 1009.1
20260509150517 72 87 2.6 7.0 0.00 0.02 0.02 97 1009.1
20260509150013 72 171 2.6 7.8 0.00 0.02 0.02 97 1009.1
20260509145523 72 140 3.5 7.8 0.00 0.02 0.02 97 1008.8
20260509145036 72 154 3.5 6.1 0.00 0.02 0.02 97 1008.6
20260509144552 73 152 1.7 6.1 0.00 0.02 0.02 97 1008.7
20260509144004 73 132 2.6 6.1 0.00 0.02 0.02 97 1008.6
20260509143516 73 110 1.7 3.5 0.00 0.02 0.02 97 1008.5
20260509143031 73 88 0.9 4.3 0.00 0.02 0.02 97 1008.4
20260509142542 73 162 1.7 5.2 0.00 0.02 0.02 97 1008.1
20260509142056 72 163 2.6 4.3 0.00 0.02 0.02 98 1007.9
20260509141515 71 132 1.7 3.5 0.00 0.02 0.02 97 1008.4
20260509141023 71 50 0.0 1.7 0.00 0.02 0.02 97 1008.5
20260509140539 71 24 0.0 1.7 0.00 0.02 0.02 97 1008.7
20260509140028 71 5 0.0 2.6 0.00 0.02 0.02 97 1008.8
20260509135544 71 5 0.9 1.7 0.00 0.02 0.02 97 1008.9
20260509135054 71 5 0.0 2.6 0.00 0.02 0.02 97 1008.8
20260509134513 71 5 0.9 2.6 0.00 0.02 0.02 97 1008.8
20260509134022 71 94 0.0 1.7 0.00 0.02 0.02 97 1008.8
20260509133536 71 92 0.0 0.9 0.00 0.02 0.02 97 1008.7
20260509133052 70 92 0.0 0.9 0.00 0.02 0.02 97 1008.8
20260509132513 70 92 0.0 0.9 0.00 0.02 0.02 97 1008.8
20260509132035 70 92 0.0 1.7 0.00 0.02 0.02 97 1008.7
20260509131543 70 92 0.9 2.6 0.00 0.02 0.02 97 1008.7
20260509131058 70 92 0.9 2.6 0.00 0.02 0.02 97 1008.6
20260509130510 71 125 0.0 2.6 0.00 0.02 0.02 97 1008.6
20260509130004 70 125 0.0 2.6 0.00 0.02 0.02 97 1008.4
20260509125516 70 122 0.0 2.6 0.00 0.02 0.02 97 1008.3
20260509125029 70 28 0.0 3.5 0.00 0.02 0.02 97 1008.4
20260509124541 70 28 0.9 4.3 0.00 0.02 0.02 97 1008.5
20260509124056 70 27 1.7 4.3 0.00 0.02 0.02 97 1008.5
20260509123510 70 20 1.7 4.3 0.00 0.02 0.02 97 1008.4
20260509123026 70 40 0.9 4.3 0.00 0.02 0.02 97 1008.2
20260509122536 70 340 0.9 3.5 0.00 0.02 0.02 97 1008.2
20260509122049 70 19 1.7 4.3 0.00 0.02 0.02 97 1008.1
20260509121505 70 59 1.7 5.2 0.00 0.02 0.02 97 1008.1
20260509121020 70 350 1.7 5.2 0.00 0.02 0.02 97 1008.1
20260509120531 70 52 2.6 4.3 0.00 0.02 0.02 97 1008.2
20260509120036 70 60 1.7 5.2 0.00 0.02 0.02 96 1008.4
20260509115542 70 5 2.6 7.0 0.00 0.02 0.02 96 1008.6
20260509115055 70 344 2.6 7.0 0.00 0.02 0.02 96 1008.8
20260509114515 70 18 1.7 4.3 0.00 0.02 0.02 96 1008.9
20260509114028 70 44 0.9 3.5 0.00 0.02 0.02 96 1008.9
20260509113543 70 51 1.7 3.5 0.00 0.02 0.02 96 1008.9
20260509113057 70 40 1.7 3.5 0.00 0.02 0.02 96 1009.0
20260509112515 70 27 1.7 3.5 0.00 0.02 0.02 96 1009.1
20260509112026 70 63 0.9 5.2 0.00 0.02 0.02 96 1009.1
20260509111542 70 45 2.6 7.8 0.00 0.02 0.02 96 1009.1
20260509111053 70 24 3.5 7.8 0.00 0.02 0.02 96 1009.1
20260509110509 70 13 1.7 7.0 0.00 0.02 0.02 96 1009.3
20260509110006 70 5 2.6 5.2 0.01 0.02 0.02 96 1009.4
20260509105515 71 30 2.6 7.0 0.01 0.02 0.02 96 1009.2
20260509105034 71 13 2.6 7.0 0.01 0.02 0.02 96 1009.1
20260509104543 71 22 1.7 3.5 0.01 0.02 0.02 96 1009.0
20260509104057 71 23 1.7 2.6 0.01 0.02 0.02 96 1008.9
20260509104002 71 24 0.9 2.6 0.01 0.02 0.02 96 1008.9
20260509103517 71 56 0.0 1.7 0.01 0.02 0.02 96 1008.8
20260509103027 71 56 0.0 0.9 0.01 0.02 0.02 96 1008.7
20260509102546 71 56 0.0 0.9 0.01 0.02 0.02 96 1008.6
20260509102053 71 56 0.0 1.7 0.01 0.02 0.02 96 1008.5
20260509101514 71 56 0.0 1.7 0.01 0.02 0.02 96 1008.3
20260509101024 71 55 0.0 0.9 0.01 0.02 0.02 96 1008.2
20260509100535 71 55 0.0 2.6 0.01 0.02 0.02 96 1008.2
20260509100027 71 55 0.0 2.6 0.01 0.01 0.01 96 1008.1
20260509095541 71 56 0.0 1.7 0.01 0.01 0.01 96 1008.1
20260509095054 71 56 0.0 1.7 0.01 0.01 0.01 96 1008.0
20260509094511 71 56 0.0 2.6 0.01 0.01 0.01 96 1008.0
20260509094023 71 56 0.9 2.6 0.01 0.01 0.01 96 1007.8
20260509093538 71 57 0.0 2.6 0.01 0.01 0.01 96 1007.7
20260509093055 71 57 0.0 2.6 0.01 0.01 0.01 96 1007.8
20260509092512 71 57 0.9 1.7 0.01 0.01 0.01 96 1007.9
20260509092027 71 57 0.9 1.7 0.01 0.01 0.01 96 1007.7
20260509091537 71 57 0.0 2.6 0.01 0.01 0.01 96 1007.8
20260509091054 71 57 0.9 2.6 0.01 0.01 0.01 96 1007.8
20260509090510 71 61 0.9 3.5 0.01 0.01 0.01 96 1007.9
20260509090007 71 57 0.0 3.5 0.00 0.00 0.00 96 1007.9
20260509085520 71 82 0.9 1.7 0.00 0.00 0.00 96 1007.9
20260509085035 71 83 0.9 1.7 0.00 0.00 0.00 95 1007.9
20260509084548 71 108 0.0 0.9 0.00 0.00 0.00 95 1007.8
20260509084009 71 108 0.0 1.7 0.00 0.00 0.00 95 1007.9
20260509083525 71 107 0.9 1.7 0.00 0.00 0.00 95 1007.8
20260509083037 71 107 0.0 0.9 0.00 0.00 0.00 95 1008.0
20260509082553 71 108 0.0 1.7 0.00 0.00 0.00 95 1008.0
20260509082009 71 108 0.0 1.7 0.00 0.00 0.00 95 1008.2
20260509081526 71 108 0.0 2.6 0.00 0.00 0.00 95 1008.1
20260509081039 71 108 0.0 2.6 0.00 0.00 0.00 95 1008.1
20260509080555 71 108 0.0 1.7 0.00 0.00 0.00 95 1008.1
20260509080052 71 108 0.9 1.7 0.00 0.00 0.00 95 1008.0
20260509075505 71 116 0.0 1.7 0.00 0.00 0.00 95 1008.0
20260509075022 71 150 0.0 4.3 0.00 0.00 0.00 95 1008.0
20260509074529 71 150 0.9 4.3 0.00 0.00 0.00 95 1007.7
20260509074049 71 150 0.9 2.6 0.00 0.00 0.00 95 1007.7
20260509073558 71 148 0.9 2.6 0.00 0.00 0.00 95 1007.9
20260509073501 71 148 0.9 2.6 0.00 0.00 0.00 95 1007.8
20260509073025 71 148 0.0 1.7 0.00 0.00 0.00 95 1007.8